Location: Plainartige
(45.6866°N, 1.7993°E)
Time: 17:08:34
(UTC+00:00)

Tiros 1 - Pass Details

Date: 01 June 2022
Orbit: 629 x 663 km, 48.4° (Epoch: 05 July)

Event Time Altitude Azimuth Distance (km) Brightness Sun altitude
Rises 01:41:46 0° 281° (W) 2,918 10.4 -17.7°
Reaches altitude 10° 01:44:06 10° 284° (WNW) 2,012 9.5 -17.5°
Maximum altitude 01:48:42 64° 6° (N) 706 7.5 -17.2°
Drops below altitude 10° 01:53:20 10° 89° (E) 2,027 10.1 -16.8°
Sets 01:55:42 0° 92° (E) 2,942 10.9 -16.6°
